This is the latest recevied weather packets stored in our database for station/object VE9LJW. If no packets are shown the sender has not sent any weather packets the latest 10 day(s).
| Time | Temp. | Humidity | Pressure | Rain* | Wind** | Luminosity | Snow |
|---|---|---|---|---|---|---|---|
| 1777890557 | 6.67° C | 91% | 1001 hPa | 0 mm | - | 72 W/m² | - |
| 1777890252 | 6.11° C | 91% | 1000.9 hPa | 0 mm | - | 55 W/m² | - |
| 1777889949 | 6.11° C | 92% | 1000.6 hPa | 0 mm | - | 45 W/m² | - |
| 1777889647 | 6.11° C | 92% | 1000.6 hPa | 0 mm | - | 40 W/m² | - |
| 1777889344 | 6.11° C | 92% | 1000.5 hPa | 0 mm | - | 34 W/m² | - |
| 1777889041 | 6.11° C | 93% | 1000.5 hPa | 0 mm | - | 29 W/m² | - |
| 1777888739 | 5.56° C | 93% | 1000.5 hPa | 0 mm | - | 27 W/m² | - |
| 1777888434 | 5.56° C | 93% | 1000.3 hPa | 0 mm | - | 23 W/m² | - |
| 1777888130 | 5.56° C | 93% | 1000.2 hPa | 0 mm | - | 18 W/m² | - |
| 1777887828 | 5.56° C | 93% | 1000 hPa | 0 mm | - | 16 W/m² | - |
| 1777887525 | 6.11° C | 93% | 1000.1 hPa | 0 mm | - | 11 W/m² | - |
| 1777887221 | 5.56° C | 93% | 1000 hPa | 0 mm | - | 9 W/m² | - |
| 1777886917 | 6.11° C | 93% | 999.9 hPa | 0 mm | - | 5 W/m² | - |
| 1777886612 | 6.11° C | 93% | 999.7 hPa | 0 mm | - | 4 W/m² | - |
| 1777886310 | 6.11° C | 93% | 999.6 hPa | 0 mm | - | 1 W/m² | - |
| 1777886008 | 6.11° C | 94% | 999.5 hPa | 0 mm | - | 0 W/m² | - |
| 1777885707 | 6.11° C | 94% | 999.7 hPa | 0 mm | - | 0 W/m² | - |
| 1777885404 | 6.11° C | 93% | 999.6 hPa | 0 mm | - | 0 W/m² | - |
| 1777885103 | 6.67° C | 93% | 999.6 hPa | 0 mm | - | 0 W/m² | - |
| 1777884799 | 6.67° C | 94% | 999.4 hPa | 0 mm | - | 0 W/m² | - |
| 1777884495 | 6.67° C | 94% | 999.5 hPa | 0 mm | - | 0 W/m² | - |
| 1777884193 | 6.67° C | 93% | 999.4 hPa | 0 mm | - | 0 W/m² | - |
| 1777883889 | 6.67° C | 93% | 999.3 hPa | 0 mm | - | 0 W/m² | - |
| 1777883586 | 6.67° C | 93% | 999.2 hPa | 0 mm | - | 0 W/m² | - |
| 1777883282 | 6.67° C | 93% | 999 hPa | 0 mm | - | 0 W/m² | - |
* Rain latest hour (hover to see other rain measurements)
** Current wind speed in m/s (hover to see current wind gust speed)